Voltar ao catálogo

FENGYUN 1C DEB

AtivoSSO
NORAD 35125·DEBRIS·🇨🇳 China

Lançado May 10, 1999 de Taiyuan Satellite Launch Center

Loading…

Próximas Passagens (próximas 24 horas)

TLE

EnvelhecendoSource: Space-Track

Época: Sep 5, 2026, 05:33 UTC

1 35125U 99025DLD 26248.23154196  .00001422  00000-0  50964-3 0  9990
2 35125  98.2169 251.0188 0050254 215.6801 144.1023 14.34689307351017

Acompanhe FENGYUN 1C DEB em tempo real com AllMySat

Download on the App Store